Regional Weather Roundup
Issued by NWS Charleston, WV

Home | Current Version | Previous Version | Graphics & Text | Print | Product List | Glossary On
Versions: 1 2 3 4 5 6 7 8 9 10 11 12 13 14 15 16 17 18 19 20 21 22 23 24 25 26 27 28 29 30 31 32 33 34 35 36 37 38 39 40 41 42 43 44 45 46 47 48 49 50
493
ASUS41 KRLX 261210
RWRRLX
West Virginia Regional Weather Roundup
National Weather Service Charleston WV
800 AM EDT TUE SEP 26 2017

Note: "fair" indicates few or no clouds below 12,000 feet with no
significant weather and/or obstructions to visibility.

WVZ003-261300-
Northern Panhandle of West Virginia

CITY           SKY/WX    TMP DP  RH WIND       PRES   REMARKS
WHEELING       PTCLDY    65  62  90 CALM      30.07R
$$

WVZ009-261300-
Northwest West Virginia

CITY           SKY/WX    TMP DP  RH WIND       PRES   REMARKS
PARKERSBURG    CLEAR     62  60  93 CALM      30.07R
$$

WVZ006-261300-
Western West Virginia

CITY           SKY/WX    TMP DP  RH WIND       PRES   REMARKS
HUNTINGTON     FOG       62  61  96 CALM      30.04R VSB<1/4
$$

WVZ015-261300-
West Central West Virginia

CITY           SKY/WX    TMP DP  RH WIND       PRES   REMARKS
CHARLESTON     FOG       61  59  93 SE5       30.05R VSB 1
$$

WVZ022-031-261300-
North Central West Virginia

CITY           SKY/WX    TMP DP  RH WIND       PRES   REMARKS
CLARKSBURG     FOG       62  60  93 CALM      30.06R VSB 3/4
MORGANTOWN     PTCLDY    67  64  90 CALM      30.07R
$$

WVZ025-035-042-045-261300-
Southern West Virginia

CITY           SKY/WX    TMP DP  RH WIND       PRES   REMARKS
BECKLEY        CLEAR     59  57  93 CALM      30.11R FOG
LOGAN            N/A     63  63 100 CALM      30.07R FOG
BLUEFIELD      PTCLDY    57  56  96 W3        30.12R FOG
LEWISBURG      FOG       55  55 100 CALM      30.10R VSB<1/4
$$

WVZ047-261300-
Northern Mountains of West Virginia

CITY           SKY/WX    TMP DP  RH WIND       PRES   REMARKS
ELKINS         FOG       59  58  96 CALM      30.11R VSB 1/4
$$

WVZ052-261300-
Eastern Panhandle of West Virginia

CITY           SKY/WX    TMP DP  RH WIND       PRES   REMARKS
MARTINSBURG    SUNNY     64  64 100 CALM      30.04R FOG
PETERSBURG     PTCLDY    63  62  99 CALM      30.07R FOG
$$




USA.gov is the U.S. government's official web portal to all federal, state and local government web resources and services.